Погода Актобе

Погода Актобе : погода сейчас, прогноз погоды и архив. Всё, что Вы хотите узнать о погоде Актобе!

Хотите узнать прогноз погоды Актобе? Тогда Вам сюда: Погода Актобе

Поиск расширенной информации на нашем сайте:

Другие новости

Новости СМИ2

Главная страница сайта

Новости сайта

03.07.2017

Напоминаем, что на нашем специализированном сайте Метеоцентр.Азия вы можете получить высокодетализированные автоматические прогнозы погоды по пунктам России, СНГ и мира в авиационном формате (включающие направление и скорость ветра, видимость, явления погоды, количество и форму облачности, нижнюю и верхнюю границу облачности).


Погода Актобе - сегодня

Время (UTC), дата Ветер
(°,м/с) 
Видим.   Явления Облачность Т
(°С)
Тd
(°С)
f(%) Тe
(°С)
Pmin
(гПа)
dP
(гПа)
Po
(мм)
O2
(г/м3)
Тmin Tmax R s Состояние
почвы
15 16.10.17 120 (ЮВ) н/о    10/4 1000 м средняя 
[Sc|Ac As]
+9.7 +7.6 87 +10  1003.6  0.3  733  284    +13  0.7     
18 16.10.17 130 (ЮВ) н/о    10/6 1000 м средняя 
[Sc|Ac As]
+9.5 +7 84 +10  1003.3  -0.3  733  284    +13  0.7     
21 16.10.17 140 (ЮВ) н/о  слаб. ливневой дождь  10/10 600 м кучево-дожд. 
[Cb cap]
+9.2 +8 92 +9  1002.7  -0.6  733  284           
00 17.10.17 160 (Ю) н/о  дождь{ливн. осадки}  10/10 300 м 
[Frnb|Ns]
+7.7 +6.6 93 +7  1003.1  0.2  733  286           
03 17.10.17 140 (ЮВ) 10 км  слаб. дождь  10/10 300 м 
[Frnb|Ns]
+6.9 +6.5 97 +7  1004.1  733  287         
06 17.10.17 160 (Ю) 20000 м  {дождь}  10/10 600 м 
[Sc]
+7.8 +6.9 94 +9  1004.8  0.7  734  286  +6.7       
09 17.10.17 160 (Ю) 20000 м    9/9 1000 м 
[Sc]
+10.2 +7.7 84 +11  1004.3  -0.2  734  284           
12 17.10.17 180 (Ю) 20000 м  в посл. час ливневой дождь  10/10 300 м кучево-дожд. 
[Cb cap]
+8 +6.5 90 +9  1005.1  0.5  734  286           
15 17.10.17 тихо ()   н/о  {ливн. осадки}  9/3 600 м кучево-дожд., средняя 
[Cb calv|Ac cuf]
+6.9 +5.8 93 +7  1005.8  0.6  735  288    +11.6     
18 17.10.17 тихо ()   н/о  {ливн. осадки}  ясно 
+4.9 +3.5 91 +5  1005.6  -0.4  734  290    +11.6     
21 17.10.17 тихо ()   н/о  туман  ?/?  
+3.9 +3.4 97 +4  1005.1  -0.6  734  291           
00 18.10.17 тихо ()   н/о  дымка{туман}  10/10 200 м 
[St]
+5.9 +5.2 95 +6  1005.1  0.2  734  289           
03 18.10.17 310 (СЗ) 10 км    10/10 300 м 
[Sc]
+6.2 +4.6 89 +5  1006.1  735  289           
06 18.10.17 320 (СЗ) 20000 м    10/4 600 м кучево-дожд., средняя 
[Cb calv|Ac As]
+5.9 +3.3 83 +4  1007.6  1.4  736  290  +3.1         
09 18.10.17 310 (СЗ) 20000 м    10/4 600 м кучево-дожд., средняя 
[Cb calv|Ac As]
+8.5 +4 73 +7  1007.9  0.6  736  287           
12 18.10.17 280 (З) 20000 м    10/4 600 м кучево-дожд., средняя 
[Cb calv|Ac As]
+8.2 +4.1 75 +7  1009.5  1.5  737  288           
15 18.10.17 280 (З) н/о    6/3 600 м кучево-дожд., средняя 
[Cb calv|Ac As]
+6.3 +1.3 70 +4  1011.5  1.8  739  291    +9.3       
18 18.10.17 280 (З) н/о    8/3 600 м кучево-дожд., средняя 
[Cb calv|Ac As]
+5.8 +2.4 79 +5  1012.6  740  291    +9.3       
21 18.10.17 280 (З) н/о  {ливн. осадки}  10/5 600 м кучево-дожд., средняя 
[Cb calv|Ac As]
+6.5 +3.4 81 +6  1012.7  0.1  740  291           
00 19.10.17 280 (З) н/о  {ливн. осадки}  10/3 600 м кучево-дожд., средняя 
[Cb calv|Ac As]
+6.4 +3.3 81 +5  1011.1  -1.5  738  290           
03 19.10.17 280 (З) 10 км    10/3 600 м кучево-дожд., средняя 
[Cb calv|Ac As]
+6.1 +3.8 85 +6  1011.3  0.2  739  290      0.0     
06 19.10.17 260 (З) 10 км    10/10 600 м 
[Sc]
+6.9 +5.1 88 +4  1011.9  0.6  739  290  +5.5    0.0     
09 19.10.17 240 (ЮЗ) 4000 м  слаб. морось  10/10 300 м 
[St]
+7.8 +6.9 94 +5  1012.1  0.3  739  288           
15 19.10.17 250 (З) н/о    10/10 600 м 
[Sc]
+11.3 +9.9 91 +11  1012.3  0.2  740  284    +11.4  0.0     
18 19.10.17 250 (З) н/о  слаб. ливневой дождь  10/10 600 м кучево-дожд. 
[Cb cap]
+12.2 +9.5 84 +12  1011.9  -0.3  740  283    +11.4  0.0     
Время (UTC), дата Ветер
(°,м/с) 
Видим.   Явления Облачность Т
(°С)
Тd
(°С)
f(%) Тe
(°С)
Pmin
(гПа)
dP
(гПа)
Po
(мм)
O2
(г/м3)
Тmin Tmax R s Состояние
почвы

Для получения пояснительной информации подведите курсор к названию столбца.

ПОГОДА Актобе - архив

Всё, что Вы хотите узнать о погоде Актобе - удобно и подробно!

Выберите нужную дату (начиная с 1 января 2015* года) и нажмите кнопку "Найти".
Будут отображены архивные сводки погоды по пункту Актобе, начиная с указанной даты.


Отображать данные в формате CSV (для использования в таблицах Excel)


Внимание! Наш архив погоды предназначен исключительно для личного некоммерческого использования в познавательных целях. Если Вам необходимы официальные справки о состоянии погоды (для производственных, юридических, коммерческих и т.п. целей), обращайтесь в органы Росгидромета.

*Примечание: данная дата относится к архиву по метеостанциям СССР (Россия, СНГ, Балтия).
Архив по метеостанциям Зарубежной Европы и Азии (кроме Китая) хранится 10 дней, по другим регионам земного шара (Китай, Африка, Америка, Австралия, Океания) - 1 день.

Актобе - район местоположения метеостанции


Название, широта, долгота, высота метеостанции:
Актобе (город) 50.3°ш. 57.2°д. 219 м над ур. моря [Казахстан]

Дополнительная информация

В oтличие oт бoльшинства пoгoдных сайтoв мы публикуем пoдрoбную метеoинфoрмацию в детальнoм прoфессиoнальнoм фoрмате.

Характеристики температуры и влажнoсти вoздуха измеряются на высoте 2 м в тени вдали oт зданий и деревьев.
Скoрoсть ветра измеряется на высoте 10 м (на урoвне рoста челoвека скoрoсть ветра ниже в 1.5-2 раза). Если метеoстанция нахoдится в гoрoде или в лесу, тo скoрoсть ветра занижена на 2-4 м/с пo сравнению с oткрытым местoм. Скoрoсть ветра над акватoриями крупных рек и oзёр, а также на вершинах хoлмoв на 2-5 м/с выше, чем в oбычных услoвиях.
Атмoсфернoе давление в разных тoчках местнoсти мoжет значительнo oтличаться oт давления на метеoстанции, в зависимoсти oт услoвий рельефа (при пoдъёме на 10 м давление пoнижается примернo на 1 мм рт.ст.).